FLTSATCOM 8 (USA 46)

导读 | 星芒AI

FLTSATCOM 8(USA-46)是美国海军FLTSATCOM通信卫星系列中的一颗,于1984年12月12日由航天飞机“哥伦比亚号”(STS-51C任务)发射。该卫星用于提供安全的军事通信,支持战术和战略指挥控制。它运行在近地轨道,设计寿命为5年,但实际在轨运行时间更长。FLTSATCOM 8采用洛克希德公司的LM-2000卫星平台,具备UHF和SHF频段通信能力,是冷战时期美国军事通信网络的重要组成部分。

基本信息
目录编号:
20253
目录名称:
FLTSATCOM 8 (USA 46)
国际标识:
1989-077A
轨道中心:
EARTH
卫星名称:
FLTSATCOM 8 (USA 46)
卫星全名:
--
卫星状态:
在轨 (已飞行13186 天)
发射日期:
1989-09-25 UTC
国别 :
美国 (US)
星等 :
--
轨道信息
数据来源 国际轨道数据 AOE轨道数据
星历时间 2025-10-31T21:33:51+0800
13小时前
查看轨道信息
2025-10-30T22:00:00+0800
1天前
查看轨道信息
半长轴 42165.457km 42164.981km
偏心率 0.0006059 0.0006317
轨道倾角 12.486° 12.487°
近地点辐角 251.171° 252.317°
升交点赤经 352.528° 352.532°
平近点角 125.624° 130.061°
近地点 35761.773km 35760.21km
远地点 35812.871km 35813.482km
周期 1436.134分钟 1436.110分钟
每日圈数 1.002692 1.002709
详细信息
使用方式:
暂无
2D轨道图
3D轨道图
轨道高度分析图
轨道倾角分析图
轨道综合分析图
查看轨道综合分析图